Temp_Advection
nan nan nan nan nan nan nan nan nan nan nan nan nan nan nan nan nan nan nan nan nan nan nan nan nan nan nan nan nan nan nan nan nan nan nan nan nan nan nan nan nan nan nan nan nan
nan -0 -0 -0 0 0 -0 -1 -1 -1 -0 -0 0 -0 -0 0 -0 -2 -2 0 -0 0 0 0 -0 0 0 -0 0 0 -0 -1 -0 -0 -0 -0 -0 -1 -1 -0 0 0 0 1 nan
nan 0 -0 -0 0 0 -0 -0 -1 -1 -1 -0 0 0 0 0 -1 -2 0 0 0 0 0 0 0 0 0 0 0 0 -0 -1 -0 -0 -0 -0 -0 -0 -0 -0 -0 0 1 1 nan
nan 0 -0 -0 0 0 0 -0 -0 -1 -1 -0 -0 0 0 0 -0 -0 0 0 1 0 0 0 0 0 0 0 -0 0 -0 -1 -0 -0 0 -0 -0 0 -0 -0 0 0 0 0 nan
nan -0 -0 -0 0 0 0 -0 -0 -1 -1 -1 -0 0 0 -0 -1 0 0 0 0 0 0 0 -0 -0 -0 -0 0 -0 -0 -0 -0 0 -0 -0 0 -0 -0 -1 0 0 -0 -0 nan
nan -0 -0 -0 -0 0 0 0 -0 -0 -1 -1 -0 0 0 -1 -1 0 -0 0 -0 -0 -0 -0 -0 -0 -0 -0 -0 -0 -0 0 0 0 0 0 -0 -0 -0 -1 -0 -0 0 -0 nan
nan -0 -0 0 -0 -0 0 0 -0 -0 -1 -1 -0 0 -0 -2 0 0 0 0 0 -0 -0 -1 0 0 -0 -0 -0 0 0 -0 -0 -0 -0 -0 1 -0 -2 -0 -0 -1 -1 -0 nan
nan -0 -0 -0 -0 -0 -0 0 -0 -0 -0 -1 0 0 -0 -1 0 0 0 0 0 0 -0 0 0 0 0 0 0 0 -0 -0 -0 -0 -0 1 0 -0 -1 0 -0 -1 -1 -1 nan
nan -0 -0 -0 -0 -0 -0 -0 -0 -0 -0 0 -0 0 -0 0 -0 -0 0 0 -0 -0 0 0 0 0 0 0 -0 -0 0 0 -0 -0 0 0 -0 -1 -1 1 -0 -0 -0 -1 nan
nan -0 -0 -0 -0 -0 -0 -0 -0 -0 0 -0 -0 0 -1 -0 -1 0 0 0 -0 -0 0 0 0 0 0 -0 -0 0 -0 -0 -0 -0 0 0 0 -1 -0 0 -0 -0 -0 -0 nan
nan -0 -0 -0 -0 -0 -0 -1 -0 -0 0 -0 0 -0 -0 -0 0 0 -0 0 0 0 0 0 -0 -0 0 -0 -0 -0 -0 0 -0 -0 0 0 0 -1 -1 -0 -1 -1 -1 -2 nan
nan -0 -0 -0 -0 0 0 -0 -0 -0 -0 -1 -0 -0 -0 -0 0 0 0 0 0 0 0 0 -0 -0 -0 -0 -0 -0 -0 -0 -0 -0 0 0 -0 -1 -0 -0 -1 -1 -0 -1 nan
nan -0 -0 -0 -0 -0 0 0 -0 -0 -0 -0 -0 -1 1 -0 -0 -0 -0 -0 -0 -0 0 0 -0 -0 -0 -0 0 0 0 -0 0 -0 -0 -0 -0 0 -0 -0 -1 -0 -0 -1 nan
nan -0 -0 -0 0 0 -0 -0 -0 -0 0 -0 -0 -0 0 0 0 -0 -0 -0 -0 -0 0 0 0 0 0 0 -0 0 0 -0 -0 -0 0 -0 -0 -0 -0 -0 -0 -1 -1 -1 nan
nan -0 0 0 -0 0 -0 0 0 -0 0 0 -0 0 0 0 0 0 0 -0 -0 -0 -0 0 0 0 0 0 -0 0 0 -0 -0 -0 -0 0 0 -0 -0 -0 -0 -0 -0 -0 nan
nan -0 -0 0 0 0 -0 0 0 -0 -0 0 0 -0 0 0 0 0 0 0 0 -0 -0 0 0 -0 -0 0 0 -0 -0 -1 -0 -0 -0 -0 0 -0 -0 -0 -0 -0 -1 -1 nan
nan 0 -0 -0 0 0 0 0 0 -0 -0 0 0 0 0 0 0 0 0 0 0 0 0 0 -0 0 -0 -0 -0 -0 -1 -0 -0 -0 -1 -0 -0 -1 -1 -1 -0 -0 -2 -1 nan
nan -0 -0 -0 -0 -0 -0 -0 0 -0 -0 -0 0 0 0 0 0 0 -0 0 -0 -0 -0 0 -0 0 0 -0 0 0 -0 -0 -0 -0 -0 -0 -0 -0 -0 -1 -0 0 -0 -0 nan
nan -0 -0 -0 0 0 0 0 -0 -0 -0 0 -0 -0 0 0 0 0 0 -0 -0 -0 -0 -0 -0 0 -0 -0 -0 0 -0 -0 -0 -0 -0 -0 -1 -1 0 0 -0 -1 -0 -1 nan
nan -0 -0 0 0 0 0 0 0 -0 1 -0 -0 0 0 0 0 0 0 -0 -0 -0 -0 -0 0 0 0 0 -0 -0 -0 -0 0 -0 -0 -0 -0 -1 -0 0 -0 -0 -0 -1 nan
nan -0 0 0 0 0 0 -0 -0 0 0 0 -0 0 0 -0 0 0 0 -0 -0 -0 0 -0 -0 -0 0 0 0 0 0 -0 -0 -0 0 -0 -0 -0 -0 -0 0 -0 -1 -1 nan
nan 0 0 0 -0 -0 0 0 0 -0 -0 -0 0 -0 -0 -0 0 -0 0 -0 -0 -0 0 -0 -1 0 0 -0 0 0 0 -0 -0 -0 0 0 -1 -0 -0 -0 0 1 0 -0 nan
nan -0 0 0 0 0 -0 0 -0 -0 -0 -0 0 -0 -0 -0 -0 0 -0 -0 -0 -0 -0 -0 -0 0 -0 -0 -0 0 0 -0 -0 -0 -0 -0 -1 -0 -0 -1 0 0 0 -0 nan
nan -0 0 -0 0 0 -0 -0 -0 -0 -0 0 -0 0 -0 -0 -0 -0 0 0 0 0 0 -1 -0 -0 0 0 0 0 -0 0 0 -0 -0 -1 -2 -1 -0 -1 -0 0 -0 -0 nan
nan 0 -0 -0 -0 0 -0 -0 0 0 0 -0 -0 0 -0 -0 -0 -0 0 0 -0 -0 -0 -0 0 0 -0 -0 -0 -0 0 0 -0 -1 -0 -1 -0 -1 -1 -0 0 -0 -0 -0 nan
nan 0 -0 -0 -0 0 0 0 0 0 -0 -0 -0 -0 -0 0 0 -0 -0 -0 0 -0 -0 -0 0 0 -0 -0 -0 -0 -0 -0 -1 -0 -0 0 -1 -1 -1 0 0 -1 -1 -1 nan
nan nan nan nan nan nan nan nan nan nan nan nan nan nan nan nan nan nan nan nan nan nan nan nan nan nan nan nan nan nan nan nan nan nan nan nan nan nan nan nan nan nan nan nan nan
Wind_Speed
21 20 19 19 19 17 18 19 16 12 7 18 15 13 12 13 14 16 22 16 22 16 15 12 16 16 14 8 11 10 3 4 5 7 5 8 4 10 14 8 6 5 12 8 20
23 23 22 20 20 20 18 17 20 18 13 7 17 14 11 12 14 21 22 14 17 22 16 14 13 16 10 9 8 6 5 7 5 6 3 8 3 10 8 5 1 8 10 17 21
23 23 22 22 22 22 19 19 19 19 20 12 18 15 10 9 9 17 13 19 21 29 18 13 11 13 8 7 9 5 5 8 7 13 3 6 10 5 4 5 5 1 19 20 22
26 26 24 21 21 21 22 19 19 18 16 14 10 15 11 9 7 1 6 21 23 20 21 18 17 6 6 6 9 3 8 14 6 19 10 4 10 3 8 7 4 3 9 9 19
29 27 25 25 23 21 20 22 18 19 16 15 10 17 13 10 14 7 4 20 22 23 24 19 16 11 5 8 11 3 3 10 14 20 10 10 9 9 12 18 17 14 8 9 10
26 24 22 22 25 22 20 19 19 18 16 14 13 16 16 7 10 11 5 18 25 23 25 22 12 17 8 4 8 1 11 12 12 10 6 6 8 13 5 14 24 25 22 18 14
26 24 23 20 20 20 20 19 16 19 14 18 14 18 18 23 8 11 9 14 22 20 22 25 11 12 8 1 9 4 4 3 6 6 4 4 14 8 20 27 28 33 31 30 26
23 22 21 19 18 18 19 20 17 15 13 23 15 17 9 21 13 17 12 14 9 15 20 22 19 6 5 5 4 5 4 0 4 3 8 10 18 3 15 23 28 31 31 31 33
22 20 19 18 16 19 18 19 16 15 15 20 19 13 6 14 27 19 16 17 14 12 13 12 20 5 5 6 3 1 2 4 6 9 6 9 2 10 27 29 23 28 31 28 30
22 18 18 18 15 14 17 19 17 14 13 13 14 9 10 14 28 24 13 19 16 17 14 9 8 3 3 4 6 6 3 3 5 4 1 7 8 10 15 12 23 26 27 31 31
21 22 20 16 14 17 16 20 4 2 9 6 10 4 7 16 21 21 21 19 10 16 5 8 3 4 8 4 3 4 1 2 4 3 5 7 5 12 19 17 20 28 31 37 39
22 22 16 17 17 18 17 14 9 3 6 19 6 21 8 22 13 24 24 11 8 5 4 3 2 8 14 11 7 2 3 4 6 1 3 7 16 16 15 16 25 33 34 35 41
23 19 18 16 20 21 11 9 6 3 2 8 15 23 16 16 7 23 23 13 5 6 4 5 3 6 6 7 7 4 4 2 5 5 1 7 10 6 6 12 20 30 33 34 40
22 17 18 21 17 6 14 3 6 2 2 4 8 8 10 11 4 24 19 13 4 8 7 4 1 6 6 2 3 2 3 2 2 4 4 5 6 6 8 10 7 14 15 23 26
21 15 20 21 24 12 11 3 8 5 4 9 5 18 17 1 23 14 12 2 5 7 5 4 5 6 4 4 4 4 5 4 2 3 4 2 2 8 4 6 5 4 3 11 18
25 24 21 20 9 5 6 2 5 2 2 6 7 10 9 10 2 18 5 5 9 6 5 3 4 3 5 4 4 7 5 6 4 3 2 4 4 6 3 4 1 4 15 18 15
25 18 16 9 2 3 15 7 3 2 2 5 8 16 14 5 5 7 6 3 4 6 3 2 2 2 5 6 3 5 6 2 4 3 6 1 3 9 9 11 4 8 22 12 1
13 7 9 5 5 12 19 1 1 5 4 8 13 14 6 9 7 8 7 4 2 5 4 4 2 6 2 4 6 3 5 4 5 2 4 2 5 6 6 11 8 6 10 8 12
15 25 20 17 14 14 2 3 3 4 5 11 14 5 5 4 7 6 6 5 4 3 5 4 2 2 5 3 6 3 2 3 3 3 3 4 7 9 3 5 6 13 19 20 18
18 20 19 11 4 1 1 5 3 3 10 10 4 2 4 5 6 4 9 6 3 6 1 5 3 2 2 5 2 4 6 3 3 1 4 5 5 6 4 4 5 7 12 17 18
8 6 8 6 4 3 2 5 5 8 3 2 3 5 8 6 8 5 9 1 7 4 4 0 4 2 4 3 6 4 2 2 3 3 3 4 6 6 4 2 7 7 17 22 26
6 3 6 7 3 1 2 2 4 5 7 4 5 10 4 5 4 3 8 3 12 7 5 1 4 3 7 2 3 4 5 5 4 3 2 2 8 7 4 2 10 25 27 36 36
4 2 5 7 2 2 4 4 2 3 5 4 4 3 5 5 5 3 5 4 18 8 8 4 2 2 3 5 3 3 5 4 4 2 6 1 6 1 8 20 28 25 30 31 29
3 3 4 4 1 2 2 2 3 4 4 5 5 12 4 3 3 4 3 5 5 5 12 7 3 4 5 5 3 3 5 6 8 3 3 9 17 22 17 21 22 30 27 22 15
5 3 3 3 3 2 3 5 6 7 8 9 7 4 4 4 6 4 3 3 6 5 4 4 3 3 5 6 2 5 5 6 8 17 6 14 16 25 22 22 23 24 16 17 18
3 3 5 4 6 4 5 6 7 6 5 4 6 3 8 4 1 5 6 3 3 1 3 2 1 2 4 4 7 7 10 11 12 15 17 21 23 23 28 19 17 14 16 17 19
4 3 3 6 2 2 1 4 5 2 10 9 6 7 10 4 6 9 6 10 8 6 3 4 3 2 4 2 4 5 10 12 6 6 8 7 10 9 13 12 6 12 15 19 24
Wind_Direction
330 325 325 325 318 318 311 278 283 253 310 261 272 283 268 257 247 234 229 225 205 169 168 175 201 207 208 207 192 199 126 212 227 177 233 273 1 318 297 249 185 128 164 203 181
324 319 319 317 314 317 310 305 276 253 248 305 256 272 265 258 256 247 236 220 194 180 174 177 199 188 192 206 199 175 175 217 210 223 264 303 337 327 331 241 118 128 159 166 174
313 309 309 310 306 308 311 308 303 269 239 270 246 254 252 246 272 259 231 209 187 194 206 196 191 191 198 194 202 191 192 219 246 273 278 322 306 317 306 264 49 158 160 172 182
308 306 303 300 298 303 309 306 303 295 249 254 294 233 231 203 226 221 188 188 176 184 194 199 206 182 188 195 209 191 208 226 237 260 282 276 281 255 254 250 272 129 163 198 202
318 317 306 300 303 300 297 300 300 299 248 246 281 215 204 211 235 157 150 184 175 190 193 197 191 192 188 181 238 216 259 250 253 268 271 273 251 250 234 258 264 272 252 225 225
315 309 310 304 297 299 301 303 296 287 258 245 245 206 199 226 255 209 182 186 185 191 196 198 198 197 209 209 174 230 234 246 261 245 255 251 257 250 253 256 264 266 269 264 240
319 314 310 301 300 303 301 301 291 279 269 230 226 207 203 223 196 181 177 186 194 192 190 195 173 190 211 164 210 174 175 282 233 243 243 296 272 222 246 262 262 268 272 271 267
320 319 314 310 306 300 303 301 290 275 276 223 222 206 220 218 178 177 187 168 168 196 203 197 203 205 201 158 129 133 65 27 265 273 249 188 253 241 238 254 263 269 268 268 267
325 322 317 317 313 305 304 299 294 277 281 228 262 204 226 203 206 186 192 187 166 177 182 192 199 182 164 129 66 12 191 213 305 224 227 181 270 245 252 248 253 263 263 273 261
326 323 319 323 314 316 327 309 308 269 266 233 248 157 222 198 200 192 186 184 173 174 156 167 167 173 134 150 191 202 191 223 238 329 274 256 254 268 263 244 237 255 265 265 262
329 323 321 314 313 317 314 336 343 334 218 198 170 199 227 182 189 191 190 175 176 165 150 166 138 172 167 221 123 145 140 286 273 291 334 271 267 273 274 271 266 264 258 262 261
320 316 308 314 314 317 306 303 282 304 314 235 241 208 243 158 154 184 179 162 167 152 126 130 184 179 189 215 211 236 325 297 283 251 278 302 287 272 261 254 243 250 257 257 262
321 314 313 314 320 313 323 284 260 320 298 225 235 216 146 156 142 166 171 159 147 144 147 135 159 156 162 169 210 166 168 239 264 319 347 321 273 255 285 260 262 249 252 255 259
320 309 313 316 315 295 311 282 201 209 118 221 203 198 165 143 82 162 163 137 153 162 129 160 201 163 151 143 122 135 81 135 44 38 267 40 292 297 280 303 289 277 269 259 261
327 309 308 311 299 260 284 83 157 185 113 155 154 159 164 175 143 178 159 125 145 134 118 196 165 121 120 165 147 171 122 98 64 39 359 275 224 275 301 304 307 290 326 296 279
315 309 311 319 305 280 179 187 137 168 224 165 128 180 124 132 95 149 154 86 122 94 60 112 135 108 154 89 120 144 76 42 49 62 331 241 183 284 266 251 266 300 299 307 296
317 297 312 304 338 241 177 156 69 254 304 177 154 142 131 123 121 141 154 120 134 132 123 75 50 102 104 94 67 94 72 353 353 351 231 178 160 254 270 276 273 305 305 305 254
0 27 39 46 72 146 156 30 117 254 227 145 133 133 105 126 135 136 137 118 34 80 118 141 284 171 193 152 170 170 137 158 227 228 287 330 236 252 235 289 317 22 4 346 311
57 72 72 79 107 131 243 9 289 336 324 129 116 101 111 77 126 128 182 160 195 155 132 126 267 174 161 133 126 195 147 187 100 19 29 262 291 292 139 67 26 22 27 8 351
73 65 64 80 104 214 353 328 278 286 122 117 88 62 113 121 121 139 166 185 206 181 129 191 92 138 110 94 111 136 152 64 357 230 274 278 277 245 293 354 5 15 8 350 340
63 52 54 66 92 7 353 336 318 339 144 107 133 126 119 124 126 148 175 303 178 179 176 111 97 296 115 185 175 152 189 123 122 167 207 317 270 221 217 115 314 306 313 314 313
57 64 45 20 64 241 310 336 330 297 276 287 82 104 93 94 120 134 190 253 187 150 163 33 105 149 199 289 185 167 184 150 129 266 241 165 264 274 294 296 309 322 321 318 311
26 38 15 18 36 344 343 321 270 257 240 139 110 121 140 124 141 143 132 336 182 158 161 168 38 61 19 3 18 192 196 169 119 118 207 178 261 289 307 324 315 315 311 308 303
353 27 13 20 287 304 305 295 285 256 283 93 105 125 100 103 56 119 99 33 137 135 159 115 142 161 183 203 142 186 187 188 183 203 209 232 282 288 296 308 312 314 306 316 336
7 356 12 329 319 337 253 333 33 17 26 48 87 108 117 118 114 106 98 81 43 97 75 101 169 151 243 250 181 202 206 195 196 234 242 271 285 287 297 297 308 310 322 315 308
49 9 342 290 291 3 359 352 14 1 32 38 96 56 78 77 231 160 128 126 180 53 94 53 175 88 297 259 213 247 241 228 237 248 258 268 275 279 279 304 325 343 334 322 323
59 13 337 291 280 26 318 333 356 20 43 49 107 78 55 18 59 106 122 159 160 139 118 117 114 72 278 300 320 279 229 201 203 210 215 236 252 291 309 329 351 340 329 321 312
Height
1503 1500 1496 1494 1490 1487 1485 1484 1482 1483 1480 1482 1482 1482 1481 1481 1481 1481 1478 1480 1484 1488 1490 1494 1497 1499 1502 1503 1506 1508 1517 1519 1511 1512 1504 1499 1502 1500 1498 1495 1492 1492 1492 1494 1499
1500 1497 1494 1490 1487 1484 1481 1480 1478 1477 1477 1475 1478 1479 1477 1478 1477 1473 1474 1476 1480 1485 1488 1491 1493 1496 1499 1501 1503 1504 1512 1509 1502 1502 1503 1501 1502 1500 1497 1494 1492 1491 1492 1494 1497
1495 1492 1489 1487 1484 1480 1477 1476 1474 1472 1472 1472 1472 1474 1474 1475 1476 1465 1467 1471 1475 1481 1485 1490 1493 1495 1497 1498 1500 1499 1504 1501 1498 1500 1502 1501 1500 1501 1499 1495 1495 1494 1492 1494 1496
1489 1486 1483 1480 1478 1476 1473 1471 1469 1467 1468 1468 1468 1469 1471 1473 1474 1462 1463 1466 1472 1479 1483 1486 1491 1492 1494 1496 1496 1498 1496 1498 1498 1499 1500 1500 1499 1498 1498 1494 1492 1495 1495 1497 1498
1484 1481 1478 1476 1472 1470 1469 1467 1465 1463 1463 1464 1465 1463 1467 1470 1463 1463 1463 1465 1471 1475 1479 1483 1487 1489 1491 1491 1494 1495 1495 1495 1496 1497 1498 1498 1497 1496 1492 1492 1491 1492 1493 1494 1495
1478 1474 1472 1471 1467 1465 1463 1462 1460 1459 1458 1459 1462 1458 1463 1466 1460 1462 1463 1465 1468 1473 1477 1480 1483 1487 1488 1488 1492 1490 1493 1494 1494 1495 1495 1496 1493 1493 1488 1490 1488 1487 1489 1491 1491
1474 1470 1466 1464 1461 1460 1458 1456 1454 1453 1453 1455 1458 1456 1458 1456 1459 1460 1463 1465 1467 1471 1474 1478 1482 1486 1487 1487 1489 1490 1494 1493 1492 1491 1491 1492 1487 1484 1486 1485 1484 1483 1483 1483 1485
1469 1465 1462 1459 1458 1455 1453 1450 1448 1448 1448 1450 1453 1453 1453 1453 1457 1458 1462 1465 1467 1470 1474 1478 1481 1484 1485 1486 1487 1490 1495 1498 1489 1488 1486 1491 1482 1479 1479 1480 1479 1478 1479 1477 1477
1466 1462 1459 1456 1454 1451 1449 1446 1444 1444 1444 1445 1447 1448 1450 1448 1451 1456 1460 1464 1466 1469 1473 1476 1480 1483 1484 1487 1492 1491 1500 1499 1493 1483 1484 1486 1482 1473 1474 1475 1475 1473 1472 1472 1470
1463 1458 1456 1453 1451 1448 1445 1442 1440 1439 1440 1442 1444 1450 1445 1443 1446 1454 1459 1463 1465 1468 1473 1476 1479 1480 1482 1485 1495 1496 1497 1495 1493 1484 1481 1481 1481 1472 1471 1470 1469 1469 1468 1466 1465
1461 1457 1453 1451 1448 1446 1443 1439 1440 1439 1436 1435 1434 1436 1436 1440 1446 1451 1457 1460 1463 1466 1470 1472 1475 1478 1480 1481 1484 1487 1487 1489 1488 1484 1483 1480 1479 1474 1468 1467 1465 1461 1460 1458 1457
1458 1454 1450 1448 1445 1442 1440 1439 1439 1441 1437 1431 1433 1436 1434 1437 1443 1450 1456 1459 1461 1466 1469 1474 1473 1475 1481 1484 1485 1486 1488 1490 1486 1483 1483 1480 1473 1466 1460 1454 1454 1453 1452 1451 1451
1454 1450 1447 1445 1442 1439 1437 1436 1437 1439 1439 1435 1436 1435 1436 1439 1441 1446 1454 1456 1460 1466 1469 1470 1471 1472 1476 1479 1482 1486 1491 1492 1493 1487 1484 1482 1466 1460 1451 1446 1445 1442 1443 1445 1444
1450 1446 1444 1442 1440 1436 1436 1434 1436 1439 1440 1432 1431 1432 1436 1439 1445 1449 1454 1456 1462 1467 1469 1472 1472 1472 1475 1478 1482 1487 1486 1488 1491 1493 1500 1489 1490 1468 1452 1447 1442 1438 1438 1437 1437
1446 1443 1440 1438 1434 1431 1434 1433 1436 1439 1454 1428 1430 1433 1436 1439 1441 1450 1453 1455 1460 1462 1467 1474 1472 1474 1478 1479 1481 1488 1487 1490 1492 1498 1501 1495 1501 1469 1454 1446 1439 1435 1435 1434 1433
1441 1437 1434 1432 1430 1431 1432 1435 1437 1440 1439 1423 1426 1429 1436 1440 1443 1448 1453 1456 1459 1462 1466 1471 1472 1474 1476 1478 1480 1485 1490 1496 1498 1506 1521 1492 1492 1475 1456 1445 1438 1436 1435 1433 1432
1431 1430 1429 1428 1426 1428 1433 1435 1442 1433 1430 1425 1422 1428 1435 1441 1445 1448 1454 1458 1462 1470 1477 1473 1477 1476 1475 1482 1484 1487 1498 1522 1527 1532 1508 1487 1495 1475 1451 1442 1440 1439 1435 1433 1430
1425 1427 1428 1428 1428 1430 1436 1438 1438 1423 1418 1417 1422 1431 1437 1440 1448 1451 1455 1462 1462 1466 1477 1485 1494 1477 1476 1479 1486 1487 1495 1515 1508 1513 1503 1483 1480 1458 1442 1440 1438 1437 1434 1433 1433
1434 1432 1431 1432 1434 1438 1440 1442 1430 1425 1416 1414 1429 1435 1440 1444 1447 1454 1457 1465 1463 1464 1474 1487 1484 1474 1474 1477 1480 1490 1502 1497 1509 1513 1526 1490 1473 1452 1441 1440 1439 1438 1434 1433 1432
1438 1437 1437 1439 1439 1440 1442 1432 1431 1430 1419 1423 1432 1436 1442 1446 1451 1454 1458 1461 1461 1462 1463 1469 1487 1475 1474 1476 1480 1486 1490 1509 1524 1528 1513 1490 1482 1459 1443 1441 1442 1440 1439 1438 1435
1442 1441 1443 1443 1444 1444 1443 1437 1434 1428 1429 1429 1432 1435 1438 1444 1450 1454 1458 1458 1458 1462 1463 1464 1474 1482 1475 1479 1484 1487 1489 1493 1501 1508 1505 1500 1473 1448 1443 1442 1443 1440 1439 1436 1433
1443 1446 1446 1443 1444 1444 1442 1440 1439 1434 1430 1429 1430 1434 1440 1444 1452 1454 1460 1458 1456 1460 1465 1464 1475 1497 1480 1479 1479 1482 1485 1492 1516 1509 1511 1507 1472 1440 1438 1439 1439 1437 1433 1429 1425
1446 1446 1447 1444 1446 1446 1442 1440 1439 1432 1430 1429 1431 1433 1438 1444 1453 1453 1454 1454 1455 1459 1462 1465 1483 1502 1488 1486 1482 1483 1482 1485 1491 1495 1512 1500 1464 1437 1438 1436 1434 1431 1429 1425 1420
1450 1451 1447 1446 1445 1445 1445 1440 1436 1430 1428 1426 1431 1433 1437 1443 1445 1452 1455 1456 1456 1457 1460 1463 1477 1483 1488 1486 1484 1490 1479 1481 1485 1492 1490 1478 1452 1441 1439 1433 1430 1428 1424 1420 1417
1453 1454 1454 1451 1445 1445 1443 1439 1434 1434 1431 1431 1435 1437 1439 1445 1448 1453 1456 1457 1458 1460 1463 1467 1483 1482 1479 1475 1480 1479 1478 1480 1488 1474 1486 1456 1458 1442 1439 1433 1429 1425 1421 1418 1414
1455 1455 1454 1450 1447 1445 1444 1442 1440 1439 1437 1440 1444 1442 1440 1446 1447 1451 1454 1458 1458 1462 1465 1469 1485 1484 1482 1470 1473 1477 1472 1473 1472 1469 1464 1459 1454 1440 1434 1429 1427 1425 1422 1417 1413
1456 1456 1455 1450 1448 1447 1447 1445 1442 1441 1443 1443 1443 1444 1447 1451 1448 1448 1450 1453 1455 1461 1466 1471 1481 1488 1489 1470 1472 1474 1459 1460 1458 1456 1452 1452 1437 1431 1430 1428 1427 1424 1422 1417 1410